Flag for Canada Weather past 2 weeks in Bathurst, New Brunswick, Canada

Now
21 °F

Light snow. Overcast.


Feels Like: 21 °F
Forecast: 17 / 27 °F
Wind: 2 mph from Southeast

Location: Bathurst Airport

Current Time: Mar 2, 2015 at 11:30:52 AM

Latest Report: Mar 2, 2015 at 11:00 AM


Visibility: 3 mi

Pressure: 29.71 "Hg

Humidity: 86%

Dew point: 18 °F

Location of BathurstLocation

Historic Weather in Bathurst — Graph

°F

Bathurst temperature yesterday

Maximum temperature yesterday: 28 °F (at 3:00 PM)
Minimum temperature yesterday: 10 °F (at 2:00 AM)
Average temperature yesterday: 19 °F

Past Weeks' High & Low Weather Summary

 TemperatureHumidityPressure
High28 °F (Mar 1, 3:00 PM)93% (Feb 19, 4:00 PM)30.56 "Hg (Feb 19, 4:00 PM)
Low-18 °F (Feb 28, 2:00 AM)25% (Feb 17, 2:00 PM)29.04 "Hg (Feb 16, 3:00 AM)
Average10 °F63%29.90 "Hg
* Reported Feb 15 10:00 AM — Mar 2 10:00 AM, Bathurst, Weather by CustomWeather, © 2015

Note: Actual official high and low records may vary slightly from our data, if they occured in-between our weather recording intervals... More about our weather records

Advertising

Bathurst weather history for previous 24 hours

 ConditionsComfort  
Time TempWeatherWind HumidityBarometerVisibility
10:00 AM
Mon, Mar 2
21 °FLight snow. Overcast.2 mph80%29.75 "Hg4 mi
9:00 AM18 °FLight snow. Overcast.No wind93%29.78 "Hg4 mi
8:00 AM16 °FLight snow. Overcast.2 mph93%29.81 "Hg3 mi
7:00 AM16 °FLight snow. Overcast.2 mph86%29.84 "Hg5 mi
6:00 AM16 °FLight snow. Overcast.2 mph93%29.88 "Hg4 mi
5:48 AM16 °FLight snow. Overcast.2 mph93%29.88 "Hg3 mi
5:00 AM16 °FLight snow. Overcast.2 mph93%29.91 "Hg1 mi
4:00 AM18 °FLight snow. Overcast.3 mph86%29.95 "Hg6 mi
3:00 AM18 °FLight snow. Overcast.3 mph86%30.00 "Hg8 mi
2:00 AM18 °FLight snow. Overcast.3 mph79%30.04 "Hg4 mi
1:00 AM19 °FOvercast.3 mph53%30.07 "Hg15 mi
12:00 AM19 °FMostly cloudy.5 mph53%30.11 "Hg15 mi
11:00 PM
Sun, Mar 1
19 °FMostly cloudy.8 mph53%30.14 "Hg15 mi
10:00 PM21 °FMostly cloudy.7 mph49%30.19 "Hg15 mi
9:00 PM21 °FMostly cloudy.6 mph45%30.22 "Hg15 mi
8:00 PM19 °FPassing clouds.2 mph45%30.25 "Hg15 mi
7:00 PM25 °FPassing clouds.6 mph36%30.27 "Hg15 mi
6:00 PM27 °FPartly sunny.7 mph31%30.27 "Hg15 mi
5:00 PM23 °FPartly sunny.3 mph58%30.30 "Hg15 mi
4:00 PM23 °FOvercast.6 mph54%30.32 "Hg15 mi
3:00 PM28 °FOvercast.7 mph37%30.37 "Hg15 mi
2:00 PM25 °FOvercast.7 mph42%30.40 "Hg15 mi
1:00 PM27 °FOvercast.No wind36%30.45 "Hg15 mi
12:00 PM25 °FOvercast.6 mph39%30.50 "Hg15 mi
11:00 AM23 °FOvercast.6 mph42%30.52 "Hg15 mi
Weather by CustomWeather, © 2015

See weather overviewHow to use our weather pages